When you browse on this site, cookies collect data to enhance your experience and personalize the content and advertising you see.
Visit our Privacy Policy to learn more. By continuing to use the site, you agree to this use of cookies and data.
  • en France
  • Liste des pays
  • À 7 jours
  • Température de l'eau
  • Carte météo
  • Widgets météo
  • user-avatar
    Se connecter

    Météo par heure à Porto-Novo

    Ce jour, 26 Janvier, Dimanche

    Heure Température Précipitation Vent Pression Humidité
    00:00 +22°C° 0 mm 0 m/s 757 mmHg 53%
    01:00 +24°C° 0 mm 1 m/s 757 mmHg 51%
    02:00 +23°C° 0 mm 1 m/s 757 mmHg 48%
    03:00 +23°C° 0 mm 1 m/s 757 mmHg 46%
    04:00 +23°C° 0 mm 2 m/s 757 mmHg 44%
    05:00 +21°C° 0 mm 2 m/s 758 mmHg 41%
    06:00 +21°C° 0 mm 2 m/s 758 mmHg 39%
    07:00 +25°C° 0 mm 2 m/s 758 mmHg 31%
    08:00 +27°C° 0 mm 2 m/s 759 mmHg 23%
    09:00 +30°C° 0 mm 2 m/s 759 mmHg 16%
    10:00 +34°C° 0 mm 2 m/s 759 mmHg 14%
    11:00 +35°C° 0 mm 1 m/s 758 mmHg 12%
    12:00 +39°C° 0 mm 1 m/s 758 mmHg 10%
    13:00 +39°C° 0 mm 2 m/s 757 mmHg 11%
    14:00 +38°C° 0 mm 2 m/s 756 mmHg 13%
    15:00 +38°C° 0 mm 3 m/s 756 mmHg 15%
    16:00 +35°C° 0 mm 3 m/s 756 mmHg 23%
    17:00 +31°C° 0 mm 3 m/s 756 mmHg 32%
    18:00 +29°C° 0 mm 3 m/s 756 mmHg 41%
    19:00 +28°C° 0 mm 3 m/s 756 mmHg 46%
    20:00 +27°C° 0 mm 3 m/s 757 mmHg 52%
    21:00 +27°C° 0 mm 3 m/s 757 mmHg 57%
    22:00 +26°C° 0 mm 3 m/s 757 mmHg 61%
    23:00 +26°C° 0 mm 3 m/s 757 mmHg 64%

    Demain, 27 Janvier, Lundi

    Heure Température Précipitation Vent Pression Humidité
    00:00 +26°C° 0 mm 2 m/s 757 mmHg 68%
    01:00 +25°C° 0 mm 2 m/s 757 mmHg 70%
    02:00 +24°C° 0 mm 2 m/s 757 mmHg 71%
    03:00 +23°C° 0 mm 2 m/s 757 mmHg 73%
    04:00 +23°C° 0 mm 2 m/s 757 mmHg 73%
    05:00 +23°C° 0 mm 2 m/s 757 mmHg 72%
    06:00 +21°C° 0 mm 2 m/s 757 mmHg 71%
    07:00 +25°C° 0 mm 2 m/s 758 mmHg 62%
    08:00 +28°C° 0 mm 2 m/s 759 mmHg 53%
    09:00 +31°C° 0 mm 2 m/s 759 mmHg 44%
    10:00 +34°C° 0 mm 1 m/s 758 mmHg 36%
    11:00 +36°C° 0 mm 1 m/s 758 mmHg 29%
    12:00 +40°C° 0 mm 1 m/s 757 mmHg 21%
    13:00 +39°C° 0 mm 2 m/s 757 mmHg 27%
    14:00 +37°C° 0 mm 3 m/s 756 mmHg 32%
    15:00 +36°C° 0 mm 5 m/s 755 mmHg 38%
    16:00 +34°C° 0 mm 5 m/s 755 mmHg 47%
    17:00 +32°C° 0 mm 5 m/s 755 mmHg 57%
    18:00 +29°C° 0 mm 5 m/s 756 mmHg 66%
    19:00 +28°C° 0 mm 4 m/s 756 mmHg 69%
    20:00 +28°C° 0 mm 4 m/s 757 mmHg 72%
    21:00 +28°C° 0 mm 4 m/s 757 mmHg 75%
    22:00 +27°C° 0 mm 4 m/s 757 mmHg 77%
    23:00 +27°C° 0 mm 4 m/s 758 mmHg 79%

    Après-demain, 28 Janvier, Mardi

    Heure Température Précipitation Vent Pression Humidité
    00:00 +27°C° 0 mm 4 m/s 758 mmHg 81%
    01:00 +26°C° 0 mm 3 m/s 757 mmHg 83%
    02:00 +26°C° 0 mm 2 m/s 757 mmHg 85%
    03:00 +25°C° 0 mm 2 m/s 757 mmHg 87%
    04:00 +25°C° 0 mm 2 m/s 757 mmHg 88%
    05:00 +25°C° 0 mm 2 m/s 757 mmHg 88%
    06:00 +25°C° 0 mm 2 m/s 758 mmHg 89%
    07:00 +27°C° 0 mm 2 m/s 758 mmHg 79%
    08:00 +29°C° 0 mm 2 m/s 759 mmHg 70%
    09:00 +32°C° 0 mm 2 m/s 759 mmHg 60%
    10:00 +34°C° 0 mm 3 m/s 759 mmHg 54%
    11:00 +35°C° 0 mm 3 m/s 758 mmHg 48%
    12:00 +37°C° 0 mm 3 m/s 758 mmHg 42%
    13:00 +36°C° 0 mm 4 m/s 757 mmHg 45%
    14:00 +36°C° 0 mm 5 m/s 756 mmHg 48%
    15:00 +35°C° 0 mm 5 m/s 755 mmHg 51%
    16:00 +34°C° 0 mm 5 m/s 755 mmHg 58%
    17:00 +32°C° 0 mm 5 m/s 755 mmHg 65%
    18:00 +29°C° 0 mm 5 m/s 755 mmHg 72%
    19:00 +29°C° 0 mm 5 m/s 756 mmHg 74%
    20:00 +29°C° 0 mm 4 m/s 757 mmHg 76%
    21:00 +28°C° 0 mm 4 m/s 757 mmHg 79%
    22:00 +28°C° 0 mm 4 m/s 757 mmHg 81%
    23:00 +27°C° 0 mm 3 m/s 757 mmHg 82%

    29 Janvier, Mercredi

    Heure Température Précipitation Vent Pression Humidité
    00:00 +27°C° 0 mm 3 m/s 757 mmHg 84%
    01:00 +27°C° 0 mm 3 m/s 756 mmHg 86%
    02:00 +26°C° 0 mm 2 m/s 756 mmHg 88%
    03:00 +26°C° 0 mm 2 m/s 756 mmHg 90%
    04:00 +26°C° 0 mm 2 m/s 756 mmHg 91%
    05:00 +25°C° 0 mm 2 m/s 757 mmHg 92%
    06:00 +25°C° 0 mm 1 m/s 757 mmHg 93%
    07:00 +27°C° 0 mm 1 m/s 757 mmHg 83%
    08:00 +30°C° 0 mm 1 m/s 758 mmHg 72%
    09:00 +32°C° 0 mm 1 m/s 758 mmHg 62%
    10:00 +34°C° 0 mm 1 m/s 758 mmHg 56%
    11:00 +36°C° 0 mm 2 m/s 758 mmHg 50%
    12:00 +37°C° 0 mm 3 m/s 757 mmHg 45%
    13:00 +37°C° 0 mm 3 m/s 756 mmHg 47%
    14:00 +36°C° 0 mm 4 m/s 756 mmHg 49%
    15:00 +36°C° 0 mm 5 m/s 755 mmHg 51%
    16:00 +34°C° 0 mm 5 m/s 755 mmHg 59%
    17:00 +32°C° 0 mm 5 m/s 755 mmHg 67%
    18:00 +29°C° 0 mm 5 m/s 755 mmHg 75%
    19:00 +29°C° 0 mm 4 m/s 756 mmHg 78%
    20:00 +29°C° 0 mm 4 m/s 756 mmHg 81%
    21:00 +28°C° 0 mm 4 m/s 757 mmHg 84%
    22:00 +28°C° 0 mm 3 m/s 757 mmHg 86%
    23:00 +27°C° 0 mm 3 m/s 757 mmHg 89%

    30 Janvier, Jeudi

    Heure Température Précipitation Vent Pression Humidité
    00:00 +27°C° 0 mm 2 m/s 756 mmHg 91%
    01:00 +26°C° 0 mm 2 m/s 756 mmHg 92%
    02:00 +26°C° 0 mm 2 m/s 756 mmHg 92%
    03:00 +26°C° 0 mm 2 m/s 756 mmHg 93%
    04:00 +26°C° 0 mm 2 m/s 756 mmHg 93%
    05:00 +26°C° 0 mm 2 m/s 756 mmHg 93%
    06:00 +25°C° 0 mm 1 m/s 757 mmHg 94%
    07:00 +28°C° 0 mm 1 m/s 757 mmHg 83%
    08:00 +30°C° 0 mm 1 m/s 758 mmHg 73%
    09:00 +30°C° 0 mm 0 m/s 758 mmHg 62%
    10:00 +34°C° 0 mm 1 m/s 758 mmHg 56%
    11:00 +36°C° 0 mm 2 m/s 757 mmHg 50%
    12:00 +37°C° 0 mm 3 m/s 757 mmHg 44%
    13:00 +37°C° 0 mm 4 m/s 756 mmHg 47%
    14:00 +36°C° 0 mm 4 m/s 756 mmHg 50%
    15:00 +35°C° 0 mm 5 m/s 755 mmHg 53%
    16:00 +34°C° 0 mm 5 m/s 755 mmHg 60%
    17:00 +32°C° 0 mm 5 m/s 755 mmHg 68%
    18:00 +30°C° 0 mm 5 m/s 755 mmHg 75%
    19:00 +29°C° 0 mm 5 m/s 756 mmHg 78%
    20:00 +29°C° 0 mm 5 m/s 756 mmHg 80%
    21:00 +28°C° 0 mm 4 m/s 757 mmHg 83%
    22:00 +28°C° 0 mm 4 m/s 757 mmHg 85%
    23:00 +27°C° 0 mm 3 m/s 757 mmHg 87%

    31 Janvier, Vendredi

    Heure Température Précipitation Vent Pression Humidité
    00:00 +27°C° 0 mm 2 m/s 757 mmHg 90%
    01:00 +27°C° 0 mm 3 m/s 757 mmHg 90%
    02:00 +27°C° 0 mm 3 m/s 757 mmHg 91%
    03:00 +27°C° 0 mm 3 m/s 756 mmHg 92%
    04:00 +27°C° 0 mm 2 m/s 757 mmHg 91%
    05:00 +27°C° 0 mm 2 m/s 757 mmHg 90%
    06:00 +27°C° 0 mm 2 m/s 758 mmHg 90%
    07:00 +28°C° 0.1 mm 2 m/s 758 mmHg 82%
    08:00 +30°C° 0.1 mm 2 m/s 759 mmHg 74%
    09:00 +31°C° 0.1 mm 2 m/s 759 mmHg 67%
    10:00 +33°C° 0 mm 3 m/s 759 mmHg 63%
    11:00 +34°C° 0 mm 3 m/s 758 mmHg 58%
    12:00 +35°C° 0 mm 3 m/s 758 mmHg 54%
    13:00 +35°C° 0 mm 4 m/s 757 mmHg 54%
    14:00 +35°C° 0 mm 4 m/s 757 mmHg 54%
    15:00 +35°C° 0 mm 5 m/s 756 mmHg 53%
    16:00 +34°C° 0 mm 5 m/s 756 mmHg 59%
    17:00 +32°C° 0 mm 5 m/s 756 mmHg 66%
    18:00 +30°C° 0 mm 5 m/s 756 mmHg 72%
    19:00 +29°C° 0 mm 5 m/s 757 mmHg 74%
    20:00 +29°C° 0 mm 5 m/s 757 mmHg 76%
    21:00 +29°C° 0 mm 4 m/s 758 mmHg 78%
    22:00 +28°C° 0 mm 4 m/s 758 mmHg 80%
    23:00 +28°C° 0 mm 4 m/s 758 mmHg 82%
    Voir plus